SWA1954 KLAX-KPHX

Flight info

Callsign SWA1954
Flight time 0h 58m
Altitude 31000
Route DOTSS2 CNERY BLH HYDRR1
Aircraft B737/M-SDE2E3FGHIRWXY/LB1

Departure

Time 2026-04-23 18:21
Airport Los Angeles International Airport (KLAX)

Arrival

Time 2026-04-23 19:20
Airport Phoenix Sky Harbor International Airport (KPHX)
Time Latitude Longitude Altitude Speed Heading
2026-04-23 18:04 33.94620 -118.40004 92 ft 0 kts 165°
2026-04-23 18:11 33.94628 -118.40006 92 ft 4 kts 168°
2026-04-23 18:11 33.94655 -118.40010 91 ft 4 kts 180°
2026-04-23 18:12 33.94678 -118.40010 91 ft 2 kts 179°
2026-04-23 18:12 33.94703 -118.40010 92 ft 4 kts 180°
2026-04-23 18:12 33.94730 -118.40009 92 ft 4 kts 187°
2026-04-23 18:12 33.94745 -118.40006 91 ft 4 kts 196°
2026-04-23 18:13 33.94730 -118.40026 91 ft 4 kts 250°
2026-04-23 18:13 33.94741 -118.40023 92 ft 4 kts 354°
2026-04-23 18:13 33.94762 -118.40012 92 ft 3 kts 34°
2026-04-23 18:13 33.94781 -118.40006 92 ft 0 kts
2026-04-23 18:17 33.94790 -118.40005 92 ft 3 kts
2026-04-23 18:18 33.94822 -118.40010 93 ft 7 kts 339°
2026-04-23 18:18 33.94851 -118.40068 94 ft 10 kts 308°
2026-04-23 18:18 33.94906 -118.40080 92 ft 7 kts 20°
2026-04-23 18:18 33.94923 -118.40014 92 ft 11 kts 83°
2026-04-23 18:19 33.94942 -118.39930 92 ft 6 kts 48°
2026-04-23 18:19 33.94947 -118.39925 92 ft 0 kts 40°
2026-04-23 18:19 33.94960 -118.39918 93 ft 4 kts 22°
2026-04-23 18:20 33.95005 -118.39911 92 ft 9 kts 356°
2026-04-23 18:20 33.95043 -118.39944 93 ft 9 kts 270°
2026-04-23 18:20 33.95017 -118.40191 100 ft 67 kts 263°
2026-04-23 18:20 33.94923 -118.41081 98 ft 144 kts 261°
2026-04-23 18:21 33.94773 -118.42424 544 ft 172 kts 264°
2026-04-23 18:21 33.94617 -118.43926 1356 ft 185 kts 262°
2026-04-23 18:21 33.94465 -118.45523 2143 ft 195 kts 264°
2026-04-23 18:21 33.94313 -118.47211 2788 ft 215 kts 267°
2026-04-23 18:22 33.94244 -118.49057 3489 ft 227 kts 269°
2026-04-23 18:22 33.94202 -118.51067 3913 ft 256 kts 268°
2026-04-23 18:22 33.94063 -118.53289 4550 ft 272 kts 265°
2026-04-23 18:22 33.93876 -118.55575 5497 ft 275 kts 265°
2026-04-23 18:23 33.93751 -118.57087 6384 ft 274 kts 265°
2026-04-23 18:23 33.92685 -118.62161 9449 ft 275 kts 233°
2026-04-23 18:24 33.89228 -118.64163 11665 ft 298 kts 186°
2026-04-23 18:24 33.87137 -118.64085 12492 ft 315 kts 182°
2026-04-23 18:24 33.84845 -118.63846 12882 ft 346 kts 173°
2026-04-23 18:25 33.80447 -118.60942 14681 ft 372 kts 149°
2026-04-23 18:25 33.78322 -118.59139 15620 ft 377 kts 149°
2026-04-23 18:25 33.76159 -118.57327 16542 ft 382 kts 150°
2026-04-23 18:25 33.73950 -118.55514 17435 ft 387 kts 150°
2026-04-23 18:26 33.71712 -118.53689 18338 ft 393 kts 149°
2026-04-23 18:26 33.69740 -118.51358 19194 ft 404 kts 129°
2026-04-23 18:26 33.68463 -118.48318 20053 ft 413 kts 112°
2026-04-23 18:26 33.67524 -118.45026 20772 ft 421 kts 110°
2026-04-23 18:27 33.66601 -118.41659 21498 ft 427 kts 110°
2026-04-23 18:27 33.65635 -118.38271 22260 ft 431 kts 111°
2026-04-23 18:27 33.64665 -118.34843 23032 ft 437 kts 107°
2026-04-23 18:27 33.64290 -118.31198 23710 ft 445 kts 90°
2026-04-23 18:28 33.64308 -118.27467 24331 ft 449 kts 89°
2026-04-23 18:28 33.64363 -118.23696 24883 ft 456 kts 89°
2026-04-23 18:28 33.64415 -118.19870 25405 ft 462 kts 90°
2026-04-23 18:28 33.64450 -118.15984 25933 ft 468 kts 91°
2026-04-23 18:29 33.64465 -118.12058 26493 ft 473 kts 91°
2026-04-23 18:29 33.64468 -118.08096 27038 ft 478 kts 91°
2026-04-23 18:29 33.64464 -118.04087 27538 ft 484 kts 92°
2026-04-23 18:29 33.64456 -118.00022 28008 ft 490 kts 92°
2026-04-23 18:30 33.64447 -117.95911 28526 ft 495 kts 92°
2026-04-23 18:30 33.64439 -117.91766 29081 ft 498 kts 92°
2026-04-23 18:30 33.64431 -117.87611 29653 ft 500 kts 92°
2026-04-23 18:30 33.64421 -117.83418 30123 ft 505 kts 93°
2026-04-23 18:31 33.64320 -117.79193 30546 ft 505 kts 101°
2026-04-23 18:31 33.63543 -117.75130 31071 ft 497 kts 111°
2026-04-23 18:31 33.62532 -117.71142 31061 ft 502 kts 112°
2026-04-23 18:32 33.60448 -117.63226 31060 ft 493 kts 112°
2026-04-23 18:32 33.58442 -117.55345 31078 ft 496 kts 111°
2026-04-23 18:33 33.56470 -117.47395 31074 ft 498 kts 111°
2026-04-23 18:33 33.54833 -117.40776 31075 ft 499 kts 111°
2026-04-23 18:34 33.52856 -117.32829 31067 ft 496 kts 112°
2026-04-23 18:34 33.50885 -117.24930 31061 ft 493 kts 111°
2026-04-23 18:34 33.50270 -117.20865 31047 ft 501 kts 96°
2026-04-23 18:35 33.50191 -117.16700 31064 ft 501 kts 93°
2026-04-23 18:35 33.50199 -117.08333 31061 ft 503 kts 93°
2026-04-23 18:36 33.50164 -116.99948 31063 ft 504 kts 94°
2026-04-23 18:36 33.50056 -116.91540 31053 ft 505 kts 94°
2026-04-23 18:37 33.49921 -116.83118 31036 ft 506 kts 94°
2026-04-23 18:37 33.49782 -116.74699 31016 ft 506 kts 94°
2026-04-23 18:38 33.49642 -116.66275 31020 ft 505 kts 94°
2026-04-23 18:38 33.49497 -116.57860 31003 ft 505 kts 95°
2026-04-23 18:39 33.49344 -116.49471 31022 ft 503 kts 95°
2026-04-23 18:39 33.49192 -116.41066 31012 ft 505 kts 95°
2026-04-23 18:40 33.49064 -116.32655 30989 ft 505 kts 94°
2026-04-23 18:40 33.48945 -116.24249 31003 ft 505 kts 95°
2026-04-23 18:41 33.48813 -116.15835 30997 ft 506 kts 94°
2026-04-23 18:41 33.48673 -116.07403 31001 ft 506 kts 95°
2026-04-23 18:41 33.48757 -116.03185 30981 ft 510 kts 84°
2026-04-23 18:42 33.49654 -115.99075 31028 ft 510 kts 71°
2026-04-23 18:42 33.52116 -115.91080 31017 ft 512 kts 69°
2026-04-23 18:43 33.54575 -115.83051 31004 ft 514 kts 70°
2026-04-23 18:43 33.56947 -115.74960 30993 ft 515 kts 71°
2026-04-23 18:44 33.59290 -115.66859 30996 ft 513 kts 71°
2026-04-23 18:44 33.61549 -115.58799 30990 ft 513 kts 78°
2026-04-23 18:44 33.61922 -115.54515 31013 ft 508 kts 94°
2026-04-23 18:45 33.61811 -115.50347 31008 ft 507 kts 96°
2026-04-23 18:45 33.61473 -115.41879 30993 ft 509 kts 96°
2026-04-23 18:46 33.61187 -115.33390 30993 ft 510 kts 95°
2026-04-23 18:46 33.60960 -115.24868 30984 ft 511 kts 95°
2026-04-23 18:47 33.60744 -115.16346 30985 ft 512 kts 95°
2026-04-23 18:47 33.60516 -115.07807 30992 ft 512 kts 95°
2026-04-23 18:48 33.60279 -114.99257 30979 ft 512 kts 95°
2026-04-23 18:48 33.60035 -114.90722 30988 ft 512 kts 96°
2026-04-23 18:49 33.59787 -114.82191 31014 ft 512 kts 96°
2026-04-23 18:49 33.59345 -114.73693 31002 ft 507 kts 105°
2026-04-23 18:50 33.58082 -114.66878 30969 ft 504 kts 110°
2026-04-23 18:50 33.56898 -114.61432 30633 ft 504 kts 110°
2026-04-23 18:50 33.56024 -114.57370 30395 ft 503 kts 109°
2026-04-23 18:50 33.55180 -114.53304 30158 ft 504 kts 109°
2026-04-23 18:51 33.54360 -114.49222 29901 ft 504 kts 109°
2026-04-23 18:51 33.53553 -114.45124 29623 ft 505 kts 108°
2026-04-23 18:51 33.52755 -114.41035 29353 ft 505 kts 108°
2026-04-23 18:51 33.51957 -114.36940 29075 ft 505 kts 108°
2026-04-23 18:52 33.51154 -114.32842 28798 ft 504 kts 108°
2026-04-23 18:52 33.50354 -114.28768 28117 ft 501 kts 107°
2026-04-23 18:52 33.49560 -114.24736 27481 ft 494 kts 107°
2026-04-23 18:52 33.48772 -114.20754 26814 ft 489 kts 107°
2026-04-23 18:53 33.47990 -114.16811 26160 ft 484 kts 107°
2026-04-23 18:53 33.47215 -114.12909 25516 ft 479 kts 106°
2026-04-23 18:53 33.46446 -114.09050 24995 ft 472 kts 106°
2026-04-23 18:53 33.45696 -114.05287 24775 ft 459 kts 106°
2026-04-23 18:54 33.44958 -114.01606 24494 ft 451 kts 106°
2026-04-23 18:54 33.44226 -113.97966 24240 ft 451 kts 105°
2026-04-23 18:54 33.43484 -113.94291 23980 ft 457 kts 105°
2026-04-23 18:54 33.42737 -113.90583 23669 ft 457 kts 105°
2026-04-23 18:55 33.42010 -113.86962 23341 ft 451 kts 105°
2026-04-23 18:55 33.41281 -113.83329 23006 ft 446 kts 105°
2026-04-23 18:55 33.40558 -113.79735 22722 ft 442 kts 105°
2026-04-23 18:55 33.39841 -113.76178 22428 ft 439 kts 105°
2026-04-23 18:56 33.39360 -113.73794 22238 ft 438 kts 105°
2026-04-23 18:56 33.38406 -113.69081 21850 ft 439 kts 105°
2026-04-23 18:56 33.37687 -113.65535 21565 ft 437 kts 105°
2026-04-23 18:56 33.36972 -113.62012 21281 ft 435 kts 105°
2026-04-23 18:57 33.36259 -113.58506 20998 ft 433 kts 105°
2026-04-23 18:57 33.35548 -113.55012 20718 ft 431 kts 105°
2026-04-23 18:57 33.34841 -113.51540 20429 ft 429 kts 105°
2026-04-23 18:57 33.34134 -113.48080 20147 ft 428 kts 105°
2026-04-23 18:58 33.33438 -113.44629 19870 ft 426 kts 104°
2026-04-23 18:58 33.32818 -113.41166 19581 ft 425 kts 102°
2026-04-23 18:58 33.32241 -113.37706 19289 ft 424 kts 102°
2026-04-23 18:58 33.31667 -113.34250 19008 ft 423 kts 102°
2026-04-23 18:59 33.31087 -113.30810 18738 ft 421 kts 102°
2026-04-23 18:59 33.30498 -113.27391 18461 ft 420 kts 103°
2026-04-23 18:59 33.29906 -113.23984 18180 ft 418 kts 103°
2026-04-23 18:59 33.29344 -113.20586 17863 ft 415 kts 101°
2026-04-23 19:00 33.28864 -113.17195 17571 ft 412 kts 100°
2026-04-23 19:00 33.28405 -113.13827 17294 ft 409 kts 100°
2026-04-23 19:00 33.27943 -113.10525 17022 ft 407 kts 100°
2026-04-23 19:00 33.27479 -113.07224 16743 ft 397 kts 98°
2026-04-23 19:01 33.27343 -113.03987 16524 ft 384 kts 88°
2026-04-23 19:01 33.27447 -113.00838 16283 ft 377 kts 86°
2026-04-23 19:01 33.27588 -112.97725 16043 ft 374 kts 86°
2026-04-23 19:01 33.27714 -112.94621 15804 ft 374 kts 87°
2026-04-23 19:02 33.27786 -112.92520 15646 ft 375 kts 87°
2026-04-23 19:02 33.27902 -112.88385 15332 ft 377 kts 88°
2026-04-23 19:02 33.27978 -112.85256 15086 ft 376 kts 88°
2026-04-23 19:02 33.28054 -112.82169 14831 ft 366 kts 87°
2026-04-23 19:03 33.28238 -112.79183 14592 ft 356 kts 83°
2026-04-23 19:03 33.28514 -112.76282 14368 ft 347 kts 82°
2026-04-23 19:03 33.28809 -112.73438 14149 ft 344 kts 82°
2026-04-23 19:03 33.29101 -112.70606 13931 ft 343 kts 82°
2026-04-23 19:04 33.29385 -112.67772 13705 ft 344 kts 82°
2026-04-23 19:04 33.29662 -112.64930 13457 ft 344 kts 82°
2026-04-23 19:04 33.29933 -112.62090 13220 ft 343 kts 83°
2026-04-23 19:04 33.30199 -112.59258 12984 ft 342 kts 83°
2026-04-23 19:05 33.30462 -112.56439 12750 ft 341 kts 83°
2026-04-23 19:05 33.30723 -112.53627 12522 ft 340 kts 83°
2026-04-23 19:05 33.30982 -112.50822 12297 ft 338 kts 83°
2026-04-23 19:05 33.31239 -112.48038 12098 ft 336 kts 83°
2026-04-23 19:06 33.31491 -112.45298 11883 ft 335 kts 83°
2026-04-23 19:06 33.31744 -112.42540 11665 ft 333 kts 83°
2026-04-23 19:06 33.31995 -112.39801 11451 ft 331 kts 83°
2026-04-23 19:06 33.32244 -112.37077 11233 ft 329 kts 83°
2026-04-23 19:07 33.32490 -112.34369 11029 ft 327 kts 83°
2026-04-23 19:07 33.32737 -112.31672 10796 ft 325 kts 83°
2026-04-23 19:07 33.32982 -112.28991 10581 ft 323 kts 83°
2026-04-23 19:07 33.33224 -112.26329 10366 ft 321 kts 83°
2026-04-23 19:08 33.33463 -112.23694 10160 ft 317 kts 83°
2026-04-23 19:08 33.33697 -112.21108 9946 ft 308 kts 83°
2026-04-23 19:08 33.33925 -112.18591 9696 ft 300 kts 83°
2026-04-23 19:08 33.34148 -112.16128 9488 ft 295 kts 83°
2026-04-23 19:09 33.34364 -112.13719 9295 ft 288 kts 83°
2026-04-23 19:09 33.34576 -112.11367 9111 ft 281 kts 84°
2026-04-23 19:09 33.34772 -112.09072 8903 ft 275 kts 86°
2026-04-23 19:09 33.34798 -112.06798 8618 ft 272 kts 91°
2026-04-23 19:10 33.34748 -112.04549 8347 ft 270 kts 92°
2026-04-23 19:10 33.34696 -112.02314 8066 ft 267 kts 92°
2026-04-23 19:10 33.34656 -112.00103 7792 ft 265 kts 91°
2026-04-23 19:10 33.34623 -111.97916 7514 ft 262 kts 91°
2026-04-23 19:11 33.34592 -111.95754 7242 ft 259 kts 91°
2026-04-23 19:11 33.34565 -111.93616 7040 ft 253 kts 91°
2026-04-23 19:11 33.34571 -111.91544 7000 ft 247 kts 90°
2026-04-23 19:11 33.34587 -111.89512 6994 ft 243 kts 90°
2026-04-23 19:12 33.34601 -111.88174 6991 ft 242 kts 90°
2026-04-23 19:12 33.34620 -111.85462 6865 ft 250 kts 90°
2026-04-23 19:12 33.34634 -111.83348 6498 ft 256 kts 90°
2026-04-23 19:12 33.34636 -111.81214 6131 ft 257 kts 91°
2026-04-23 19:13 33.34625 -111.79071 5767 ft 258 kts 91°
2026-04-23 19:13 33.34902 -111.76969 5363 ft 260 kts 65°
2026-04-23 19:13 33.35981 -111.75297 5047 ft 252 kts 35°
2026-04-23 19:13 33.37557 -111.74510 4664 ft 243 kts
2026-04-23 19:14 33.39214 -111.74371 4312 ft 236 kts 359°
2026-04-23 19:14 33.40795 -111.74567 3978 ft 222 kts 333°
2026-04-23 19:14 33.41886 -111.75631 3996 ft 192 kts 301°
2026-04-23 19:14 33.42599 -111.76952 4005 ft 188 kts 294°
2026-04-23 19:15 33.42845 -111.78431 4020 ft 179 kts 267°
2026-04-23 19:15 33.42871 -111.79949 4013 ft 185 kts 269°
2026-04-23 19:15 33.42888 -111.81509 4003 ft 190 kts 269°
2026-04-23 19:15 33.42892 -111.83087 3850 ft 193 kts 268°
2026-04-23 19:16 33.42890 -111.84692 3618 ft 187 kts 268°
2026-04-23 19:16 33.42888 -111.86239 3374 ft 184 kts 268°
2026-04-23 19:16 33.42887 -111.87742 3120 ft 178 kts 269°
2026-04-23 19:17 33.42885 -111.90513 2679 ft 156 kts 268°
2026-04-23 19:17 33.42885 -111.91744 2503 ft 140 kts 269°
2026-04-23 19:17 33.42884 -111.92830 2311 ft 125 kts 270°
2026-04-23 19:17 33.42889 -111.93904 2203 ft 135 kts 270°
2026-04-23 19:18 33.42892 -111.95039 2018 ft 138 kts 268°
2026-04-23 19:18 33.42882 -111.96181 1845 ft 138 kts 267°
2026-04-23 19:18 33.42894 -111.97363 1656 ft 143 kts 266°
2026-04-23 19:18 33.42894 -111.98569 1454 ft 146 kts 266°
2026-04-23 19:19 33.42883 -112.00882 1128 ft 127 kts 271°
2026-04-23 19:19 33.42884 -112.01682 1126 ft 65 kts 270°
2026-04-23 19:20 33.42947 -112.02151 1117 ft 11 kts 343°
2026-04-23 19:20 33.42994 -112.02109 1121 ft 9 kts 79°
2026-04-23 19:20 33.42995 -112.02033 1118 ft 9 kts 90°
2026-04-23 19:20 33.42995 -112.01959 1125 ft 9 kts 90°
2026-04-23 19:21 33.42995 -112.01887 1119 ft 9 kts 90°
2026-04-23 19:21 33.42995 -112.01768 1119 ft 10 kts 89°
2026-04-23 19:21 33.42997 -112.01675 1125 ft 13 kts 89°
2026-04-23 19:22 33.42996 -112.01557 1125 ft 15 kts 91°
2026-04-23 19:22 33.42995 -112.01421 1122 ft 18 kts 90°
2026-04-23 19:22 33.42995 -112.01083 1123 ft 23 kts 90°
2026-04-23 19:23 33.42995 -112.00888 1123 ft 24 kts 90°
2026-04-23 19:23 33.42994 -112.00695 1123 ft 16 kts 90°
2026-04-23 19:23 33.43034 -112.00623 1122 ft 12 kts
2026-04-23 19:24 33.43194 -112.00569 1123 ft 17 kts 60°
2026-04-23 19:24 33.43249 -112.00472 1120 ft 14 kts 22°
2026-04-23 19:24 33.43284 -112.00249 1118 ft 17 kts 89°
2026-04-23 19:25 33.43283 -111.99930 1119 ft 21 kts 91°
2026-04-23 19:25 33.43284 -111.99599 1118 ft 19 kts 90°
2026-04-23 19:26 33.43291 -111.99324 1120 ft 13 kts 57°
2026-04-23 19:26 33.43373 -111.99307 1119 ft 9 kts 358°
2026-04-23 19:27 33.43407 -111.99373 1120 ft 1 kts 290°